RH
10 9 9 9 9 8 8 10 10 11 14 15 15 17 21 22 22 24 28 33 46 43 42 46 49 54 45
10 9 9 8 9 9 9 9 10 12 13 14 16 19 21 25 24 24 27 29 30 40 44 46 47 47 51
9 9 8 8 8 9 9 9 10 12 13 14 15 22 24 24 26 27 26 29 28 28 35 46 50 51 51
7 8 8 7 8 8 9 9 9 10 12 14 15 17 21 24 25 24 25 27 29 28 28 32 42 49 51
7 7 8 8 7 8 9 9 9 10 11 12 16 18 18 19 22 25 28 30 28 28 30 29 29 44 47
6 7 8 9 9 9 9 10 10 9 10 11 12 16 18 17 16 20 26 27 28 29 30 30 32 31 33
7 7 7 8 8 8 8 9 12 11 9 10 10 13 13 14 16 18 19 20 22 27 30 32 34 36 33
5 5 6 6 6 6 6 7 9 11 9 10 8 10 10 10 11 12 14 16 15 16 19 24 25 31 31
4 4 4 4 5 5 5 6 7 8 8 10 9 8 8 8 8 9 9 10 12 14 17 23 23 22 22
3 3 3 3 4 4 4 5 6 7 5 6 8 9 9 8 8 7 7 8 10 11 13 15 19 21 23
3 3 3 3 3 4 4 5 6 8 6 6 6 7 8 8 7 7 6 7 8 10 11 11 12 13 15
3 2 3 3 4 4 4 5 6 7 6 6 6 6 6 7 7 6 6 6 7 8 9 10 10 11 12
2 2 3 4 4 4 4 4 5 6 6 6 6 6 6 6 6 6 6 7 7 8 8 8 9 10 11
2 3 3 4 4 4 5 5 5 5 6 6 6 6 6 6 6 6 6 6 7 7 8 8 8 8 9
3 3 3 4 4 4 5 5 5 5 5 5 5 6 6 6 6 5 5 5 6 6 6 7 7 8 8
3 3 3 3 3 3 4 4 5 5 5 5 5 6 6 5 5 5 5 5 6 6 6 6 6 6 6
6 5 5 4 4 4 3 3 3 3 4 4 4 5 5 6 6 6 6 6 6 6 6 6 5 5 5
Wind_Speed
98 94 86 79 73 70 70 68 70 75 80 82 88 90 92 94 95 97 98 98 96 93 89 86 83 79 75
94 89 83 76 71 67 66 68 70 73 78 83 87 93 93 96 97 97 98 101 102 100 97 92 90 87 84
88 86 80 74 69 66 65 65 69 72 77 82 84 87 92 96 98 98 100 100 102 104 103 101 98 96 94
83 81 78 74 66 65 65 65 67 71 76 80 83 87 89 93 97 98 99 100 102 104 106 106 105 103 100
82 74 75 74 67 62 63 66 66 69 74 79 83 85 90 93 97 99 100 102 103 104 106 107 107 109 107
79 72 71 72 70 64 62 63 64 68 72 76 80 85 89 92 95 97 100 102 103 105 106 108 109 111 111
76 72 68 69 69 69 66 63 62 70 71 72 78 80 86 89 91 95 98 100 101 103 107 109 111 112 114
72 68 68 68 66 66 66 64 63 68 73 68 79 78 81 83 86 91 94 95 98 99 102 105 110 114 116
68 66 64 64 64 61 62 61 62 68 73 68 76 76 79 81 83 85 85 88 91 93 94 99 105 109 112
62 59 57 56 58 56 57 57 58 63 70 67 73 76 78 79 79 80 80 81 84 88 91 93 96 100 104
58 54 51 49 49 50 50 51 54 57 65 62 67 71 73 78 77 75 72 72 76 81 85 88 90 92 95
50 48 46 43 43 42 44 45 48 54 57 57 61 63 65 71 74 68 66 65 68 72 78 82 83 85 87
44 42 39 38 36 36 38 40 43 45 48 50 54 56 59 60 61 64 62 61 64 66 69 72 74 79 82
39 37 35 33 32 32 31 33 35 37 42 44 45 47 50 53 56 56 57 58 60 62 64 65 66 68 71
34 32 30 29 28 27 26 27 29 30 33 35 37 39 41 44 47 48 50 52 54 57 59 61 62 63 64
32 28 26 25 23 22 21 21 21 23 24 27 29 30 32 35 37 40 42 45 47 49 51 53 56 58 61
27 26 24 22 20 19 18 17 16 16 17 18 20 22 24 26 28 31 34 36 39 41 43 46 49 51 54
Wind_Direction
299 298 296 291 286 280 272 267 257 250 246 243 238 239 240 241 240 239 240 241 242 243 241 240 241 239 241
300 297 294 290 286 279 271 265 259 252 247 243 242 240 238 238 239 240 239 239 240 240 240 240 240 241 240
299 297 294 288 284 278 270 264 257 253 247 243 241 239 239 238 238 238 238 238 239 239 240 239 238 238 239
297 295 292 286 281 276 270 264 259 252 248 246 241 239 238 237 238 238 238 238 238 239 239 240 239 238 238
296 292 289 285 280 274 269 264 258 255 248 246 244 241 239 238 236 237 238 239 239 239 239 239 240 238 238
294 290 285 282 278 273 266 262 259 253 250 248 244 243 241 238 239 238 238 238 237 239 240 240 239 240 240
293 290 284 277 273 270 264 259 256 256 251 249 248 244 245 243 240 239 239 240 239 239 239 240 240 239 239
292 286 281 275 271 268 265 260 255 254 253 250 250 246 245 245 244 243 240 239 240 240 240 240 240 240 239
290 286 280 275 272 269 265 262 257 253 252 247 251 250 249 246 245 244 243 241 239 239 240 242 241 241 241
292 287 283 278 273 269 266 262 257 257 255 250 247 250 251 251 249 247 244 242 241 240 241 241 241 241 242
295 293 289 283 276 270 265 261 259 255 256 254 252 249 248 252 252 252 250 244 241 241 242 242 242 242 242
298 296 292 288 281 274 268 262 259 257 257 256 256 255 251 250 253 255 254 252 248 245 243 244 244 244 244
303 299 296 291 283 275 268 264 260 260 260 258 256 256 256 255 255 254 254 253 252 250 249 248 246 245 245
307 304 300 297 290 281 273 267 263 258 257 257 257 257 256 256 255 255 253 251 251 251 250 250 248 247 246
308 306 304 299 293 288 281 273 266 261 259 257 256 255 254 254 255 254 253 252 250 250 249 250 250 250 249
314 310 306 302 298 294 287 280 273 267 262 258 256 255 253 251 251 252 251 251 250 249 249 248 248 247 248
318 316 314 311 307 302 296 290 283 276 269 265 261 257 254 252 250 248 248 249 248 248 247 247 248 247 246